Weather History for MMLO - April, 2012

Change the Weather History Date:

Thursday, April 19, 2012

  Actual Average Record
Temperature  
Mean Temperature 71 °F -  
Max Temperature 89 °F 87 °F 96 °F (2013)
Min Temperature 53 °F 54 °F 50 °F (2004)
Cooling Degree Days 6    
Growing Degree Days 21 (Base 50)    
Moisture  
Dew Point 38 °F    
Average Humidity 36    
Maximum Humidity 88    
Minimum Humidity 10    
Precipitation  
Precipitation 0.00 in - - ()
Sea Level Pressure  
Sea Level Pressure 30.04 in    
Wind  
Wind Speed 5 mph ()    
Max Wind Speed 14 mph    
Max Gust Speed 16 mph    
Visibility 8.4 miles    
Events      
Averages and records for this station are not official NWS values.
T = Trace of Precipitation, MM = Missing Value Source: Averaged Metar Reports

Daily Weather History Graph

Daily Weather History Graph

Search for Another Location

Airport or City:

Trip Planner

Search our weather history database for the weather conditions in past years. The results will help you decide how hot, cold, wet, or windy it might be!

Date:

Astronomy

Apr. 19, 2012 Rise Set
Actual Time 7:23 AM CDT 8:06 PM CDT
Civil Twilight 7:00 AM CDT 8:29 PM CDT
Nautical Twilight 6:34 AM CDT 8:56 PM CDT
Astronomical Twilight 6:06 AM CDT 9:23 PM CDT
Moon 6:10 AM CDT (4/19) 6:59 PM CDT (4/19)
Length of Visible Light 13h 28m
Length of Day
12h 43m
Waning Crescent, 2% of the Moon is Illuminated
Apr 19
Waning Crescent
Apr 21
New
Apr 29
First Quarter
May 5
Full
May 12
Last Quarter

Hourly Weather History & Observations

Time (CDT) Temp. Dew Point Humidity Pressure Visibility Wind Dir Wind Speed Gust Speed Precip Events Conditions
12:50 AM 69.8 °F 44.6 °F 40% 29.74 in 8.0 mi SE 8.1 mph - N/A   Scattered Clouds
1:49 AM 66.2 °F 46.4 °F 49% 30.22 in 8.0 mi SW 8.1 mph - N/A   Scattered Clouds
2:50 AM 62.6 °F 44.6 °F 52% 30.22 in 8.0 mi SSE 6.9 mph - N/A   Scattered Clouds
3:50 AM 60.8 °F 46.4 °F 59% 29.75 in 8.0 mi NE 6.9 mph - N/A   Partly Cloudy
4:50 AM 59.0 °F 46.4 °F 63% 30.20 in 7.0 mi Calm Calm - N/A   Clear
5:50 AM 57.2 °F 46.4 °F 67% 30.19 in 7.0 mi Calm Calm - N/A   Clear
6:50 AM 55.4 °F 42.8 °F 63% 29.81 in 7.0 mi Calm Calm - N/A   Clear
7:44 AM 53.6 °F 50.0 °F 88% 30.24 in 8.0 mi Calm Calm - N/A   Clear
8:42 AM 60.8 °F 51.8 °F 72% 30.25 in 8.0 mi NE 3.5 mph - N/A   Partly Cloudy
9:43 AM 69.8 °F 50.0 °F 49% 29.86 in 8.0 mi East 3.5 mph - N/A   Partly Cloudy
10:51 AM 77.0 °F 46.4 °F 34% 30.27 in 8.0 mi Calm Calm - N/A   Scattered Clouds
11:43 AM 78.8 °F 41.0 °F 26% 30.26 in 9.0 mi WSW 5.8 mph - N/A   Mostly Cloudy
12:40 PM 82.4 °F 37.4 °F 20% 29.76 in 10.0 mi WSW 4.6 mph 16.1 mph N/A   Scattered Clouds
1:41 PM 84.2 °F 33.8 °F 16% 30.21 in 10.0 mi West 9.2 mph - N/A   Scattered Clouds
2:47 PM 87.8 °F 32.0 °F 14% 30.15 in 10.0 mi West 4.6 mph - N/A   Scattered Clouds
3:44 PM 89.6 °F 30.2 °F 12% 29.65 in 10.0 mi WSW 3.5 mph - N/A   Scattered Clouds
5:04 PM 87.8 °F 28.4 °F 12% 30.06 in 10.0 mi South 6.9 mph - N/A   Scattered Clouds
5:46 PM 89.6 °F 26.6 °F 10% 30.06 in 10.0 mi WSW 12.7 mph - N/A   Scattered Clouds
7:41 PM 82.4 °F 21.2 °F 10% 30.06 in 10.0 mi WSW 13.8 mph - N/A   Scattered Clouds
8:45 PM 75.2 °F 21.2 °F 13% 30.06 in 8.0 mi WSW 5.8 mph - N/A   Scattered Clouds
9:45 PM 69.8 °F 26.6 °F 20% 29.68 in 7.0 mi WSW 6.9 mph - N/A   Clear
10:44 PM 64.4 °F 26.6 °F 24% 30.09 in 7.0 mi NW 3.5 mph - N/A   Clear
11:42 PM 64.4 °F 28.4 °F 26% 30.12 in 8.0 mi WNW 4.6 mph - N/A   Clear